Saginaw, MI

11:02 AM EDT on August 23, 2017 (GMT -0400)
MBS International

Weather History for KMBS - July, 2013

Change the Weather History Date:

Thursday, July 4, 2013

  Actual Average Record
Temperature  
Mean Temperature 72 °F 71 °F  
Max Temperature 80 °F 82 °F 97 °F (2012)
Min Temperature 63 °F 60 °F 50 °F (2014)
Degree Days  
Heating Degree Days 0    
Month to date heating degree days 1  
Since 1 June heating degree days 54  
Since 1 July heating degree days 1  
Cooling Degree Days 7    
Month to date cooling degree days 12  
Year to date cooling degree days 225  
Since 1 June cooling degree days 151  
Growing Degree Days 20 (Base 50)    
Moisture  
Dew Point 62 °F    
Average Humidity 74    
Maximum Humidity 100    
Minimum Humidity 48    
Precipitation  
Precipitation 0.00 in 0.09 in 1.32 in (2001)
Month to date precipitation 0.06 0.36  
Year to date precipitation 20.95 14.99  
Snow  
Snow 0.00 in - - ()
Month to date snowfall 0.0  
Since 1 June snowfall 0.0  
Since 1 July snowfall 0.0  
Snow Depth 0.00 in    
Sea Level Pressure  
Sea Level Pressure 30.09 in    
Wind  
Wind Speed 6 mph (SW)    
Max Wind Speed 15 mph    
Max Gust Speed 20 mph    
Visibility 6 miles    
Events      
T = Trace of Precipitation, MM = Missing Value Source: NWS Daily Summary

Daily Weather History Graph

Daily Weather History Graph

Search for Another Location

Airport or City:

Trip Planner

Search our weather history database for the weather conditions in past years. The results will help you decide how hot, cold, wet, or windy it might be!

Date:

Astronomy

Jul. 04, 2013 Rise Set
Actual Time 6:00 AM EDT 9:20 PM EDT
Civil Twilight 5:25 AM EDT 9:55 PM EDT
Nautical Twilight 4:39 AM EDT 10:41 PM EDT
Astronomical Twilight 3:42 AM EDT 11:38 PM EDT
Moon 3:19 AM EDT (7/4) 6:21 PM EDT (7/4)
Length of Visible Light 16h 30m
Length of Day
15h 19m
Waning Crescent, 11% of the Moon is Illuminated
Jul 4
Waning Crescent
Jul 8
New
Jul 15
First Quarter
Jul 22
Full
Jul 29
Last Quarter

Hourly Weather History & Observations

Time (EDT) Temp. Dew Point Humidity Pressure Visibility Wind Dir Wind Speed Gust Speed Precip Events Conditions
12:53 AM 66.9 °F 64.9 °F 93% 30.08 in 7.0 mi Calm Calm - N/A   Partly Cloudy
1:53 AM 64.9 °F 63.0 °F 93% 30.09 in 5.0 mi South 3.5 mph - N/A   Clear
2:53 AM 64.9 °F 64.0 °F 97% 30.07 in 5.0 mi SSW 4.6 mph - N/A   Clear
3:45 AM 62.6 °F 62.6 °F 100% 30.07 in 1.8 mi WSW 5.8 mph - N/A   Clear
3:53 AM 64.9 °F 63.0 °F 93% 30.06 in 1.8 mi SW 4.6 mph - N/A   Clear
3:56 AM 64.4 °F 64.4 °F 100% 30.07 in 3.0 mi SW 4.6 mph - N/A   Clear
4:08 AM 64.4 °F 62.6 °F 94% 30.07 in 1.8 mi WSW 4.6 mph - N/A   Partly Cloudy
4:29 AM 64.4 °F 62.6 °F 94% 30.08 in 3.0 mi WSW 5.8 mph - N/A   Clear
4:53 AM 64.9 °F 63.0 °F 93% 30.07 in 4.0 mi SW 3.5 mph - N/A   Clear
5:32 AM 62.6 °F 62.6 °F 100% 30.08 in 1.8 mi Calm Calm - N/A   Clear
5:45 AM 62.6 °F 60.8 °F 94% 30.09 in 3.0 mi Calm Calm - N/A   Clear
5:53 AM 63.0 °F 61.0 °F 93% 30.08 in 1.8 mi Calm Calm - N/A   Clear
6:14 AM 62.6 °F 62.6 °F 100% 30.09 in 0.8 mi SW 4.6 mph - N/A   Partly Cloudy
6:38 AM 62.6 °F 62.6 °F 100% 30.10 in 1.0 mi South 3.5 mph - N/A   Clear
6:53 AM 64.0 °F 63.0 °F 96% 30.10 in 1.0 mi South 3.5 mph - N/A   Clear
7:53 AM 66.0 °F 64.0 °F 93% 30.12 in 2.5 mi SW 4.6 mph - N/A   Clear
8:34 AM 69.8 °F 64.4 °F 83% 30.13 in 6.0 mi SW 4.6 mph - N/A   Partly Cloudy
8:53 AM 69.1 °F 64.9 °F 87% 30.12 in 6.0 mi SW 4.6 mph - N/A   Clear
9:53 AM 72.0 °F 64.9 °F 78% 30.12 in 9.0 mi WSW 9.2 mph - N/A   Mostly Cloudy
10:28 AM 73.4 °F 64.4 °F 73% 30.13 in 9.0 mi SSW 6.9 mph - 0.01 in   Mostly Cloudy
10:50 AM 71.6 °F 64.4 °F 78% 30.13 in 9.0 mi SW 9.2 mph - 0.01 in   Mostly Cloudy
10:53 AM 73.0 °F 64.9 °F 76% 30.12 in 9.0 mi WSW 6.9 mph - 0.01 in   Mostly Cloudy
11:53 AM 73.9 °F 62.1 °F 66% 30.12 in 10.0 mi SW 10.4 mph - N/A   Scattered Clouds
12:53 PM 75.0 °F 60.1 °F 60% 30.12 in 10.0 mi SW 13.8 mph 19.6 mph N/A   Partly Cloudy
1:53 PM 75.9 °F 59.0 °F 56% 30.12 in 10.0 mi SW 9.2 mph - N/A   Partly Cloudy
2:53 PM 77.0 °F 59.0 °F 54% 30.11 in 10.0 mi SSW 8.1 mph - N/A   Clear
3:53 PM 79.0 °F 59.0 °F 50% 30.09 in 10.0 mi Variable 6.9 mph - N/A   Partly Cloudy
4:53 PM 78.1 °F 57.9 °F 50% 30.09 in 10.0 mi SSW 13.8 mph 19.6 mph N/A   Clear
5:53 PM 78.1 °F 59.0 °F 52% 30.09 in 10.0 mi SSW 8.1 mph - N/A   Clear
6:53 PM 78.1 °F 59.0 °F 52% 30.07 in 10.0 mi SSW 6.9 mph - N/A   Clear
7:53 PM 75.9 °F 59.0 °F 56% 30.07 in 10.0 mi SSW 6.9 mph - N/A   Partly Cloudy
8:53 PM 73.9 °F 61.0 °F 64% 30.08 in 10.0 mi SW 4.6 mph - N/A   Clear
9:53 PM 72.0 °F 61.0 °F 68% 30.08 in 10.0 mi South 3.5 mph - N/A   Clear
10:53 PM 70.0 °F 62.1 °F 76% 30.10 in 10.0 mi South 4.6 mph - N/A   Clear
11:53 PM 69.1 °F 61.0 °F 75% 30.10 in 10.0 mi South 4.6 mph - N/A   Clear